Погода Маресале

Погода Маресале : погода сейчас, прогноз погоды и архив. Всё, что Вы хотите узнать о погоде Маресале!

Хотите узнать прогноз погоды Маресале? Тогда Вам сюда: Погода Маресале

Поиск расширенной информации на нашем сайте:

Другие новости

Новости СМИ2

Главная страница сайта

Новости сайта

03.07.2017

Напоминаем, что на нашем специализированном сайте Метеоцентр.Азия вы можете получить высокодетализированные автоматические прогнозы погоды по пунктам России, СНГ и мира в авиационном формате (включающие направление и скорость ветра, видимость, явления погоды, количество и форму облачности, нижнюю и верхнюю границу облачности).


Погода Маресале - сегодня

Время (UTC), дата Ветер
(°,м/с) 
Видим.   Явления Облачность Т
(°С)
Тd
(°С)
f(%) Тe
(°С)
Pmin
(гПа)
dP
(гПа)
Po
(мм)
O2
(г/м3)
Тmin Tmax R s Состояние
почвы
15 10.10.18 180 (Ю) 7{12}  10 км  слаб. ливневой дождь  10/10 330 м кучево-дожд. 
[Cb cap]
+1.8 +1.8 100 -2  996  -1  745  298    +2.4     
03 11.10.18 130 (ЮВ) 4000 м  дымка{ливн. осадки}  6/6 200 м 
[St]
+0.3 +0.3 100 -2  994.5  -0.2  743  299  +0.3    0.5     
09 11.10.18 160 (Ю) 4000 м  дымка  9/9 870 м 
[Sc]
+1.8 +1.5 98 994.1  -0.2  743  297           
15 11.10.18 120 (ЮВ) 4000 м  дымка  10/10 800 м 
[Sc]
+0.6 +0.6 100 -1  992.9  -1  742  298    +1.8       
21 11.10.18 070 (В) 4000 м  дымка{ливн. осадки}  4/4 600 м 
[Sc]
-1 -1 100 -3  990.7  -1  741  300           
00 12.10.18 030 (СВ) 4000 м  дымка{ливн. осадки}  8/4 600 м средняя 
[Sc|Ac trans]
-1.1 -1.1 100 -3  990.1  -0.7  740  300           
03 12.10.18 010 (С) 2000 м  слаб. ливневой снег  10/10 300 м кучево-дожд. 
[Cb cap]
-0.1 -0.1 100 -4  989.9  -0.1  740  298  -1.7    0.2  <0.5  равномерный
сухой снег
100% 
15 12.10.18 360 (С) 8{10}  2000 м  слаб. ливневой снег  10/10 330 м кучево-дожд. 
[Cb cap]
+0.2 +0.2 100 -4  992.7  0.8  742  299    +0.9  0.4     
03 13.10.18 360 (С) 8{11}  2000 м  слаб. ливневой снег  10/10 210 м кучево-дожд. 
[Cb cap]
+0.2 +0.2 100 -4  995.5  1.3  744  300  -0.1    0.6  равномерный
мокрый или
старый снег
100% 
15 13.10.18 360 (С) 10-13{14}  2000 м  слаб. ливневой снег  10/10 210 м кучево-дожд. 
[Cb cap]
+0.7 +0.7 100 -4  1002.7  1.8  750  301    +0.9  0.4     
09 14.10.18 350 (С) 6{10}  10 км    8/4 200 м средняя 
[St|Ac trans]
+0.9 -0.2 92 -2  1009.3  0.6  755  303           
15 14.10.18 310 (СЗ) 9-13{14}  2000 м  слаб. ливневой снег  10/10 120 м кучево-дожд. 
[Cb cap]
+0.9 +0.9 100 -3  1009.3  755  303    +2.3  0.3     
06 15.10.18 300 (СЗ) 20000 м  {ливн. осадки}  8/4 600 м средняя 
[Sc|Ac trans]
+2.1 +1 92 -1  1013.1  0.8  757  303           
09 15.10.18 280 (З) 20000 м    6/4 600 м средняя 
[Sc|Ac trans]
+1.9 -0.5 84 1013.4  0.3  758  303           
12 15.10.18 260 (З) 20000 м    10/10 720 м 
[Sc]
+1.5 -2 78 1013.3  -0.1  758  304           
15 15.10.18 180 (Ю) 20000 м    10/10 630 м 
[Sc]
+0.8 -2 82 -3  1011.7  -1.6  756  304    +2.5       
21 15.10.18 150 (ЮВ) 7{13}  20000 м    8/4 600 м средняя 
[Sc|Ac trans]
-0.4 -1.3 94 -4  1003.4  -5.5  750  303           
03 16.10.18 150 (ЮВ) 14-18{18}  0500 м  ливневой снег  10/10 270 м кучево-дожд. 
[Cb cap]
-0.1 -0.1 100 -6  990  -7.7  740  298  -1.4    равномерный
мокрый или
старый снег
100% 
12 16.10.18 240 (ЮЗ) 15-20{20}  2000 м  ливневой дождь  10/10 210 м кучево-дожд. 
[Cb cap]
+3.1 +3.1 100 -2  979.7  -3.3  732  291           
15 16.10.18 250 (З) 9-14{20}  2000 м  ливневой дождь  10/10 150 м кучево-дожд. 
[Cb cap]
+3 +3 100 -1  976.1  -3.6  730  290    +3.8     
03 17.10.18 350 (С) 12-16{16}  4000 м  дымка  10/10 330 м 
[Sc]
-0.7 -0.7 100 -6  987.7  2.8  738  298  -0.7    0.4     
15 17.10.18 010 (С) 9-12{16}  20000 м    10/10 870 м 
[Sc]
-0.8 -2.9 86 -6  1004  751  304    -0.3  0.2     
18 17.10.18 360 (С) 5{12}  20000 м    3/3 600 м 
[Sc]
-1.9 -2.5 96 -5  1006.3  2.2  752  306           
21 17.10.18 010 (С) 20000 м    10/10 900 м 
[Sc]
-1 -3.1 86 -3  1008  1.7  754  305           
00 18.10.18 320 (СЗ) 20000 м    10/10 1110 м 
[Sc]
+0.4 -0.5 94 -1  1008.9  0.9  754  304           
Время (UTC), дата Ветер
(°,м/с) 
Видим.   Явления Облачность Т
(°С)
Тd
(°С)
f(%) Тe
(°С)
Pmin
(гПа)
dP
(гПа)
Po
(мм)
O2
(г/м3)
Тmin Tmax R s Состояние
почвы

Для получения пояснительной информации подведите курсор к названию столбца.

ПОГОДА Маресале - архив

Всё, что Вы хотите узнать о погоде Маресале - удобно и подробно!

Выберите нужную дату (начиная с 1 января 2015* года) и нажмите кнопку "Найти".
Будут отображены архивные сводки погоды по пункту Маресале, начиная с указанной даты.


Отображать данные в формате CSV (для использования в таблицах Excel)


Внимание! Наш архив погоды предназначен исключительно для личного некоммерческого использования в познавательных целях. Если Вам необходимы официальные справки о состоянии погоды (для производственных, юридических, коммерческих и т.п. целей), обращайтесь в органы Росгидромета.

*Примечание: данная дата относится к архиву по метеостанциям СССР (Россия, СНГ, Балтия).
Архив по метеостанциям Зарубежной Европы и Азии (кроме Китая) хранится 10 дней, по другим регионам земного шара (Китай, Африка, Америка, Австралия, Океания) - 1 день.

Маресале - район местоположения метеостанции


Название, широта, долгота, высота метеостанции:
Маресале 69.7°ш. 66.8°д. 25 м над ур. моря [Российская Федерация]

Дополнительная информация

В oтличие oт бoльшинства пoгoдных сайтoв мы публикуем пoдрoбную метеoинфoрмацию в детальнoм прoфессиoнальнoм фoрмате.

Характеристики температуры и влажнoсти вoздуха измеряются на высoте 2 м в тени вдали oт зданий и деревьев.
Скoрoсть ветра измеряется на высoте 10 м (на урoвне рoста челoвека скoрoсть ветра ниже в 1.5-2 раза). Если метеoстанция нахoдится в гoрoде или в лесу, тo скoрoсть ветра занижена на 2-4 м/с пo сравнению с oткрытым местoм. Скoрoсть ветра над акватoриями крупных рек и oзёр, а также на вершинах хoлмoв на 2-5 м/с выше, чем в oбычных услoвиях.
Атмoсфернoе давление в разных тoчках местнoсти мoжет значительнo oтличаться oт давления на метеoстанции, в зависимoсти oт услoвий рельефа (при пoдъёме на 10 м давление пoнижается примернo на 1 мм рт.ст.).